This is the latest recevied weather packets stored in our database for station/object K6CED. If no packets are shown the sender has not sent any weather packets the latest 10 day(s).
| Time | Temp. | Humidity | Pressure | Rain* | Wind** | Luminosity | Snow |
|---|---|---|---|---|---|---|---|
| 1777781939 | 15.56° C | 89% | 1014.5 hPa | 0 mm | - | 0 W/m² | - |
| 1777781637 | 15.56° C | 88% | 1014.4 hPa | 0 mm | - | 0 W/m² | - |
| 1777781334 | 15.56° C | 87% | 1014.2 hPa | 0 mm | - | 0 W/m² | - |
| 1777781032 | 15.56° C | 87% | 1014.2 hPa | 0 mm | - | 0 W/m² | - |
| 1777780728 | 16.11° C | 86% | 1013.9 hPa | 0 mm | - | 0 W/m² | - |
| 1777780425 | 16.11° C | 86% | 1014.1 hPa | 0 mm | - | 0 W/m² | - |
| 1777780122 | 16.11° C | 85% | 1013.9 hPa | 0 mm | - | 0 W/m² | - |
| 1777779820 | 16.67° C | 85% | 1013.7 hPa | 0 mm | - | 0 W/m² | - |
| 1777779517 | 16.67° C | 84% | 1013.8 hPa | 0 mm | - | 0 W/m² | - |
| 1777779215 | 16.67° C | 84% | 1013.7 hPa | 0 mm | - | 0 W/m² | - |
| 1777778912 | 16.67° C | 83% | 1013.8 hPa | 0 mm | - | 0 W/m² | - |
| 1777778611 | 17.22° C | 82% | 1013.9 hPa | 0 mm | - | 0 W/m² | - |
| 1777778308 | 17.22° C | 82% | 1013.5 hPa | 0 mm | - | 0 W/m² | - |
| 1777778006 | 17.22° C | 81% | 1013.4 hPa | 0 mm | - | 0 W/m² | - |
| 1777777702 | 17.78° C | 81% | 1013.5 hPa | 0 mm | - | 0 W/m² | - |
| 1777777399 | 17.78° C | 80% | 1013.3 hPa | 0 mm | - | 0 W/m² | - |
| 1777777095 | 17.78° C | 80% | 1013.3 hPa | 0 mm | - | 0 W/m² | - |
| 1777776793 | 17.78° C | 79% | 1013.4 hPa | 0 mm | - | 0 W/m² | - |
| 1777776489 | 18.33° C | 78% | 1013.1 hPa | 0 mm | - | 0 W/m² | - |
| 1777776186 | 18.33° C | 77% | 1013 hPa | 0 mm | - | 1 W/m² | - |
| 1777775883 | 18.89° C | 76% | 1013.1 hPa | 0 mm | - | 2 W/m² | - |
| 1777775581 | 18.89° C | 75% | 1013.2 hPa | 0 mm | - | 3 W/m² | - |
| 1777775277 | 19.44° C | 74% | 1013 hPa | 0 mm | - | 6 W/m² | - |
| 1777774977 | 19.44° C | 73% | 1013.1 hPa | 0 mm | - | 10 W/m² | - |
| 1777774674 | 20° C | 72% | 1013 hPa | 0 mm | - | 16 W/m² | - |
* Rain latest hour (hover to see other rain measurements)
** Current wind speed in m/s (hover to see current wind gust speed)